This is the latest recevied weather packets stored in our database for station/object AA4OM-2. If no packets are shown the sender has not sent any weather packets the latest 10 day(s).
| Time | Temp. | Humidity | Pressure | Rain* | Wind** | Luminosity | Snow |
|---|---|---|---|---|---|---|---|
| 1777206510 | 12.78° C | 99% | 1013.6 hPa | 0 mm | - | 37 W/m² | - |
| 1777206206 | 12.78° C | 99% | 1013.6 hPa | 0 mm | - | 32 W/m² | - |
| 1777205901 | 12.78° C | 99% | 1013.3 hPa | 0 mm | - | 31 W/m² | - |
| 1777205598 | 12.22° C | 99% | 1013.3 hPa | 0 mm | - | 29 W/m² | - |
| 1777205295 | 11.67° C | 99% | 1013.6 hPa | 0 mm | - | 28 W/m² | - |
| 1777204686 | 11.11° C | 99% | 1013.1 hPa | 0 mm | - | 24 W/m² | - |
| 1777204381 | 11.11° C | 99% | 1013 hPa | 0 mm | - | 22 W/m² | - |
| 1777203468 | 11.11° C | 99% | 1013.2 hPa | 0 mm | - | 16 W/m² | - |
| 1777203164 | 11.11° C | 99% | 1013.1 hPa | 0 mm | - | 13 W/m² | - |
| 1777202862 | 11.11° C | 99% | 1013 hPa | 0 mm | - | 11 W/m² | - |
| 1777202560 | 11.11° C | 99% | 1013.1 hPa | 0 mm | - | 8 W/m² | - |
| 1777202255 | 11.11° C | 99% | 1013.1 hPa | 0 mm | - | 6 W/m² | - |
| 1777201647 | 11.11° C | 99% | 1012.9 hPa | 0 mm | - | 3 W/m² | - |
| 1777201039 | 11.11° C | 99% | 1013.1 hPa | 0 mm | - | 1 W/m² | - |
| 1777200436 | 11.11° C | 99% | 1013.1 hPa | 0 mm | - | 0 W/m² | - |
| 1777199829 | 11.11° C | 99% | 1013 hPa | 0 mm | - | 0 W/m² | - |
| 1777199524 | 11.67° C | 99% | 1013.1 hPa | 0 mm | - | 0 W/m² | - |
| 1777199223 | 11.67° C | 99% | 1013.1 hPa | 0 mm | - | 0 W/m² | - |
| 1777198923 | 11.67° C | 99% | 1013.1 hPa | 0 mm | - | 0 W/m² | - |
| 1777198620 | 11.67° C | 99% | 1013.1 hPa | 0 mm | - | 0 W/m² | - |
| 1777198318 | 11.67° C | 99% | 1012.8 hPa | 0 mm | - | 0 W/m² | - |
| 1777198014 | 11.67° C | 99% | 1013 hPa | 0 mm | - | 0 W/m² | - |
| 1777197404 | 11.67° C | 99% | 1012.8 hPa | 0 mm | - | 0 W/m² | - |
| 1777196494 | 11.67° C | 99% | 1013 hPa | 0 mm | - | 0 W/m² | - |
| 1777196191 | 12.22° C | 99% | 1012.8 hPa | 0 mm | - | 0 W/m² | - |
* Rain latest hour (hover to see other rain measurements)
** Current wind speed in m/s (hover to see current wind gust speed)